Terminal Aerodrome Forecast
Issued by NWS Pittsburgh, PA

Current Version | Previous Version | Text Only | Print | Product List | Glossary Off
Versions: 1 2 3 4 5 6 7 8 9 10 11 12 13 14 15 16 17 18 19 20 21 22 23 24 25 26 27 28 29 30 31 32

000
FTUS41 KPBZ 190520
TAFPIT
TAF
KPIT 190520Z 1906/2012 15007KT P6SM BKN250 WS020/19045KT
     FM191200 17009KT 6SM -RA OVC015 WS020/21045KT
     FM191600 19010KT 5SM -RA OVC010 WS020/21050KT
     FM192100 19009KT P6SM BKN025 WS020/22045KT
     FM200000 19006KT P6SM BKN060 WS020/23040KT=

USA.gov is the U.S. government's official web portal to all federal, state and local government web resources and services.